www.pogodaiklimat.ru

Погода и климат >> Архив погоды >> Новая Зеландия >> Остров Эндерби


ПОГОДА на Острове Эндерби

  • Прогноз погоды на Острове Эндерби
  • Монитор погоды на Острове Эндерби

АРХИВ ПОГОДЫ на Острове Эндерби

Время (UTC), дата Ветер
(напр.,м/с)
 
Видим.   Явления Облачность Т
(С)
Тd
(С)
f
(%)
Тe
(С)
Тes
(С)
Комфортность P
(гПа)
Po
(гПа)
Тmin
(С)
Tmax
(С)
R
(мм)
R24
(мм)
S
(см)
15 10.09 ЮЗ 9 н/о н/о +3.7 +1.8 87 -3 -3 999.4 994.6
18 10.09 ЮЗ 7 н/о н/о +4.1 -1.2 68 -2 -2 1002.2 997.4 0.8
21 10.09 З 7 н/о н/о +5.0 -0.9 66 -0 -0 1003.3 998.5
00 11.09 0 н/о н/о +6.9 +1.7 69 1001.5 996.7 +3.5 6
03 11.09 СЗ 14 н/о н/о +6.7 +5.6 93 -0 -0 996.4 991.6
06 11.09 СЗ 12 н/о н/о +8.2 +6.1 87 +2 +2 993.1 988.4
09 11.09 З 14 н/о н/о +6.8 +5.3 90 0 0 993.0 988.3
12 11.09 З 15 н/о н/о +8.0 +5.8 86 +2 +2 991.8 987.1 +8.4 3
15 11.09 З 14 н/о н/о +8.2 +6.3 88 +2 +2 989.8 985.1
18 11.09 СЗ 12 н/о н/о +8.2 +7.7 97 +2 +2 987.1 982.4 1
21 11.09 СЗ 11 н/о н/о +8.5 +8.2 98 +3 +3 986.1 981.4
00 12.09 СЗ 13 н/о н/о +8.8 +8.5 98 +3 +3 983.7 979.0 +6.3
03 12.09 З 13 н/о н/о +8.5 +8.2 98 +3 +3 980.3 975.7
06 12.09 З 11 н/о н/о +8.0 +5.5 84 +2 +2 982.7 978.0 8
09 12.09 штиль 0 н/о н/о +6.5 +3.8 83 +6 +6 986.2 981.5
12 12.09 Ю 10 н/о н/о +3.9 -0.3 74 -3 -3 991.9 987.1 +8.8 0.2
15 12.09 ЮЗ 8 н/о н/о +2.1 -2.9 69 -4 -4 997.3 992.5
18 12.09 Ю 5 н/о н/о +1.5 -3.5 69 -4 -4 1001.6 996.7
21 12.09 ЮЗ 6 н/о н/о +3.9 -3.2 60 -1 -1 1005.0 1000.2
06 13.09 З 7 н/о н/о +4.2 -1.5 66 -1 -1 1009.1 1004.2
09 13.09 З 8 н/о н/о +4.6 -1.6 64 -1 -1 1009.6 1004.7
12 13.09 СЗ 9 н/о н/о +5.1 -0.4 68 -1 -1 1009.1 1004.3
15 13.09 СЗ 10 н/о н/о +5.8 +0.1 67 -0 -0 1007.9 1003.1
18 13.09 СЗ 9 н/о н/о +6.5 +1.9 72 +1 +1 1007.2 1002.4
21 13.09 СЗ 11 н/о н/о +7.2 +1.7 68 +2 +2 1006.6 1001.8
03 14.09 С 11 н/о н/о +8.7 +4.6 75 +4 +4 1004.0 999.2
06 14.09 СЗ 9 н/о н/о +8.1 +6.2 88 +3 +3 1003.4 998.6
09 14.09 СЗ 7 н/о н/о +8.4 +6.6 88 +4 +4 1002.9 998.1
12 14.09 З 6 н/о н/о +7.2 +6.7 97 +3 +3 1002.2 997.4 1
15 14.09 З 8 н/о н/о +6.6 +5.0 90 +1 +1 1001.0 996.2
18 14.09 З 9 н/о н/о +6.3 +4.5 88 +1 +1 999.7 994.9 0.2
21 14.09 СЗ 9 н/о н/о +6.8 +5.4 91 +1 +1 998.2 993.4
00 15.09 СЗ 12 н/о н/о +7.9 +4.8 81 +2 +2 994.8 990.1
03 15.09 С 14 н/о н/о +8.9 +6.3 84 +3 +3 989.5 984.8
06 15.09 СЗ 14 н/о н/о +8.4 +7.3 93 +2 +2 986.2 981.5 2
09 15.09 З 11 н/о н/о +7.1 +4.8 85 +1 +1 987.4 982.7
12 15.09 СЗ 8 н/о н/о +6.0 +3.7 85 +1 +1 987.4 982.7 +9.0 1
18 15.09 З 11 н/о н/о +6.2 +1.4 71 0 0 990.4 985.7
21 15.09 З 11 н/о н/о +6.6 +1.3 69 +1 +1 992.6 987.9
00 16.09 СЗ 11 н/о н/о +8.3 +2.4 66 +3 +3 991.8 987.1
03 16.09 0 н/о
06 16.09 С 12 н/о н/о +7.6 +5.3 85 +2 +2 980.4 975.7
09 16.09 З 7 н/о н/о +4.9 +4.1 95 -1 -1 977.7 973.0
12 16.09 ЮЗ 10 н/о н/о +3.3 +0.6 82 -4 -4 983.1 978.4 9
15 16.09 З 12 н/о н/о +3.3 -2.1 68 -4 -4 988.3 983.5
18 16.09 З 13 н/о н/о +2.2 -1.4 77 -6 -6 993.0 988.2 1
21 16.09 ЮЗ 11 н/о н/о +3.0 -1.3 73 -4 -4 997.6 992.8
00 17.09 З 13 н/о н/о +4.7 -0.5 69 -2 -2 1001.8 997.0
06 17.09 З 9 н/о н/о +5.4 +3.1 85 -1 -1 1007.7 1002.9
09 17.09 З 14 н/о н/о +6.5 +2.9 78 -0 -0 1009.3 1004.5
12 17.09 СЗ 14 н/о н/о +7.6 +4.2 79 +1 +1 1008.3 1003.5 0.6

 

Местоположение метеостанции Остров Эндерби (Новая Зеландия): широта -50.48 долгота 166.30 высота над уровнем моря 40 м.

В архиве по умолчанию представлена погода на Острове Эндерби за последнюю неделю. Архивные данные за месяц целиком и за предыдущие месяцы, начиная с января 2011 года, Вы можете получить, выбрав интересующий диапазон дат из раскрывающегося списка и нажав кнопку "Ввод!".


*Определитесь, кто Вы:
робот инопланетянин человек

Внимание! Время в таблицах - всемирное. Для получения местного времени необходимо прибавить поправку, которая равна 12 ч.

Смотрите также архив погоды в соседних городах и на ближайших метеорологических станциях:

Погода на Острове Кэмпбелл (Новая Зеландия) (303 км)
Погода на Мысе Юго-западный (Новая Зеландия) (368 км)
Погода в Инверкаргилле (Новая Зеландия) (477 км)
Погода на Маяке Puysegur Point (Новая Зеландия) (481 км)
Погода в Данидине (Новая Зеландия) (584 км)
Погода на Острове Секретари (Новая Зеландия) (588 км)
Погода в Квинстауне (Новая Зеландия) (635 км)
Погода на Острове Маккуори (Тасмания, Австралия) (668 км)
Погода в Тара Хилс (Новая Зеландия) (714 км)
Погода в Хаасте (Новая Зеландия) (764 км)

Пояснения к столбцам:

Ветер - указаны скорость ветра в м/с - средняя за 10 мин, порывы в срок и между сроками (в фигурных скобках) и направление, откуда дует ветер: С - северный, СВ - северо-восточный, В - восточный, ЮВ - юго-восточный, Ю - южный, ЮЗ - юго-западный, З - западный, СЗ - северо-западный.
Видимость - горизонтальная дальность видимости в метрах или километрах. При видимости от 1 до 10 км при отсутствии осадков обычно наблюдается дымка, при ухудшении видимости до 1 км и менее - туман. В сухую погоду видимость может ухудшаться дымом, пылью или мглою.
Явления - указаны атмосферные явления, наблюдавшиеся в срок или в последний час перед сроком; фигурными скобками обозначены явления, наблюдавшиеся между сроками (за 1-3 часа до срока); квадратными скобками обозначены град или гололедные отложения с указанием их диаметра в мм.
Облачность - указаны через наклонную черту общая и нижняя облачность в баллах и высота нижней границы облаков в метрах; квадратными скобками обозначены формы облаков: Ci - перистые, Cs - перисто-слоистые, Cc - перисто-кучевые, Ac - высококучевые, As - высокослоистые, Sc - слоисто-кучевые, Ns - слоисто-дождевые, Cu - кучевые, Cb - кучево-дождевые. Подробнее классификацию облаков см. в Атласе облаков (PDF).
T - Температура воздуха - температура, измеренная на высоте 2 м над землей.
Td - Температура точки росы - температура, при понижении до которой содержащийся в воздухе водяной пар достигнет насыщения.
f - Относительная влажность воздуха - влажноcть воздуха, измеренная на высоте 2 м над землей.
Te - Эффективная температура - температура, которую ощущает одетый по сезону человек в тени. Характеристика душности погоды. При расчете учитывается влияние влажности воздуха и скорости ветра на теплоощущения человека.
Tes - Эффективная температура на солнце - температура, которую ощущает человек, с поправкой на солнечный нагрев. Характеристика знойности погоды. Зависит от высоты солнца над горизонтом, облачности и скорости ветра. Ночью, в пасмурную погоду, а также при ветре 12 м/с и более поправка равна нулю.
P - Атмосферное давление - приведенное к уровню моря атмосферное давление.
Po - Атмосферное давление - измеренное на уровне метеостанции атмосферное давление.
Tmin - Минимальная температура - минимум температуры воздуха на высоте 2 м над землей.
Tmax - Максимальная температура - максимум температуры воздуха на высоте 2 м над землей.
R - Количество осадков - Количество выпавших осадков за период времени, мм. При наведении курсора мыши на число - период времени, за который выпало указанное количество осадков.
R24 - Количество осадков - Количество выпавших осадков за 24 часа, мм.
S - Снежный покров - Высота снежного покрова, см. При наведении курсора мыши на число - состояние снежного покрова и степень покрытия местности в баллах.